Regional Weather Roundup
Issued by NWS

Home | Current Version | Previous Version | Graphics & Text | Print | Product List | Glossary Off
Versions: 1 2 3 4 5 6 7 8 9 10 11 12 13 14 15 16 17 18 19 20 21 22 23 24 25 26 27 28 29 30 31 32 33 34 35 36 37 38 39 40 41 42 43 44 45 46 47 48 49 50

000
ASUS43 KBIS 210610
RWRND

NORTH DAKOTA REGIONAL WEATHER ROUNDUP
NATIONAL WEATHER SERVICE BISMARCK ND
1200 AM CST TUE FEB 21 2017

NOTE: "FAIR" INDICATES FEW OR NO CLOUDS BELOW 12,000 FEET WITH NO
SIGNIFICANT WEATHER AND/OR OBSTRUCTIONS TO VISIBILITY.


NDZ001>003-009>011-017-210700-
NORTHWEST NORTH DAKOTA

CITY           SKY/WX    TMP DP  RH WIND       PRES   REMARKS
WILLISTON      CLOUDY    37  31  78 S3        29.64F
6HR MIN TEMP:  31; 6HR MAX TEMP:  47; 6HR PCP: TRACE;

MINOT          CLOUDY    37  30  75 S6        29.67F
MINOT AFB      CLOUDY    35  30  82 CALM      29.66F
$$

NDZ018>021-031>035-040>046-210700-
SOUTHWEST NORTH DAKOTA

CITY           SKY/WX    TMP DP  RH WIND       PRES   REMARKS
BISMARCK       CLOUDY    36  33  89 SE7       29.74R
6HR MIN TEMP:  32; 6HR MAX TEMP:  50;

DICKINSON      FAIR      40  27  59 S14       29.63F
GARRISON         N/A     35  31  85 E3        29.70R
6HR MIN TEMP:  31; 6HR MAX TEMP:  41;

HETTINGER ARPT MOCLDY    42  27  55 CALM      29.69F
$$

NDZ004>008-012>016-024-026-027-054-210700-
NORTHEAST NORTH DAKOTA

CITY           SKY/WX    TMP DP  RH WIND       PRES   REMARKS
GRAND FORKS    CLEAR     31  27  85 SE7       29.73S
GRND FRKS AFB  CLEAR     30  30 100 CALM      29.73R
DEVILS LAKE    FAIR      29  28  96 CALM      29.73R FOG
$$

NDZ022-023-025-028>030-036>039-047>053-210700-
SOUTHEAST NORTH DAKOTA

CITY           SKY/WX    TMP DP  RH WIND       PRES   REMARKS
FARGO          CLEAR     32  31  96 SW7       29.76F
6HR MIN TEMP:  31; 6HR MAX TEMP:  38;

JAMESTOWN      FAIR      30  29  96 S3        29.75S
$$





USA.gov is the U.S. government's official web portal to all federal, state and local government web resources and services.